Time,TemperatureF,DewpointF,PressureIn,WindDirection,WindDirectionDegrees,WindSpeedMPH,WindSpeedGustMPH,Humidity,HourlyPrecipIn,Conditions,Clouds,dailyrainin,SoftwareType,DateUTC
2013-04-18 00:03:00,49.0,37.3,30.13,SE,135,0.4,0.9,64,0.00,,,0.00,WUHU216HW,2013-04-18 07:03:00,
2013-04-18 00:08:00,49.0,36.9,30.13,SE,135,0.7,0.7,63,0.00,,,0.00,WUHU216HW,2013-04-18 07:08:00,
2013-04-18 00:13:00,49.0,36.9,30.13,SE,135,0.0,0.7,63,0.00,,,0.00,WUHU216HW,2013-04-18 07:13:00,
2013-04-18 00:18:00,48.8,36.4,30.13,SE,135,0.4,0.4,62,0.00,,,0.00,WUHU216HW,2013-04-18 07:18:00,
2013-04-18 00:23:00,48.8,36.0,30.13,ESE,113,0.2,0.7,61,0.00,,,0.00,WUHU216HW,2013-04-18 07:23:00,
2013-04-18 00:28:00,48.8,36.0,30.13,ESE,113,0.4,0.7,61,0.00,,,0.00,WUHU216HW,2013-04-18 07:28:00,
2013-04-18 00:33:00,48.6,35.8,30.13,ESE,113,0.4,0.7,61,0.00,,,0.00,WUHU216HW,2013-04-18 07:33:00,
2013-04-18 00:38:00,48.4,35.6,30.14,SE,135,0.4,0.7,61,0.00,,,0.00,WUHU216HW,2013-04-18 07:38:00,
2013-04-18 00:43:00,48.4,35.6,30.14,ESE,113,0.0,1.3,61,0.00,,,0.00,WUHU216HW,2013-04-18 07:43:00,
2013-04-18 00:49:00,48.4,35.6,30.14,East,90,0.0,1.3,61,0.00,,,0.00,WUHU216HW,2013-04-18 07:49:00,
2013-04-18 00:54:00,48.2,35.5,30.13,ESE,113,0.0,1.1,61,0.00,,,0.00,WUHU216HW,2013-04-18 07:54:00,
2013-04-18 00:59:00,48.2,35.5,30.13,ESE,113,0.0,1.1,61,0.00,,,0.00,WUHU216HW,2013-04-18 07:59:00,
2013-04-18 01:04:00,48.1,35.6,30.13,SE,135,0.0,0.9,62,0.00,,,0.00,WUHU216HW,2013-04-18 08:04:00,
2013-04-18 01:09:00,47.9,35.5,30.13,NW,315,0.0,1.1,62,0.00,,,0.00,WUHU216HW,2013-04-18 08:09:00,
2013-04-18 01:14:00,47.7,35.4,30.13,NW,315,0.0,1.1,62,0.00,,,0.00,WUHU216HW,2013-04-18 08:14:00,
2013-04-18 01:19:00,47.5,35.2,30.13,East,90,0.0,1.1,62,0.00,,,0.00,WUHU216HW,2013-04-18 08:19:00,
2013-04-18 01:24:00,47.5,35.2,30.13,ESE,113,0.7,1.1,62,0.00,,,0.00,WUHU216HW,2013-04-18 08:24:00,
2013-04-18 01:29:00,47.3,35.0,30.13,ESE,113,0.0,0.9,62,0.00,,,0.00,WUHU216HW,2013-04-18 08:29:00,
2013-04-18 01:34:00,47.2,35.2,30.13,ESE,113,0.4,0.7,63,0.00,,,0.00,WUHU216HW,2013-04-18 08:34:00,
2013-04-18 01:39:00,47.2,35.2,30.13,SE,135,0.9,0.9,63,0.00,,,0.00,WUHU216HW,2013-04-18 08:39:00,
2013-04-18 01:44:00,47.0,35.0,30.13,SE,135,0.9,1.1,63,0.00,,,0.00,WUHU216HW,2013-04-18 08:44:00,
2013-04-18 01:49:00,47.0,35.0,30.13,SE,135,0.9,1.1,63,0.00,,,0.00,WUHU216HW,2013-04-18 08:49:00,
2013-04-18 01:54:00,46.8,34.8,30.13,SE,135,0.0,0.9,63,0.00,,,0.00,WUHU216HW,2013-04-18 08:54:00,
2013-04-18 01:59:00,46.6,34.7,30.13,SE,135,0.9,0.9,63,0.00,,,0.00,WUHU216HW,2013-04-18 08:59:00,
2013-04-18 02:04:00,46.4,34.5,30.13,South,180,0.0,0.9,63,0.00,,,0.00,WUHU216HW,2013-04-18 09:04:00,
2013-04-18 02:09:00,46.4,34.5,30.13,NNE,23,0.2,0.7,63,0.00,,,0.00,WUHU216HW,2013-04-18 09:09:00,
2013-04-18 02:14:00,46.4,34.5,30.13,ENE,68,1.3,1.3,63,0.00,,,0.00,WUHU216HW,2013-04-18 09:14:00,
2013-04-18 02:19:00,46.3,34.3,30.13,ESE,113,0.4,1.3,63,0.00,,,0.00,WUHU216HW,2013-04-18 09:19:00,
2013-04-18 02:25:00,46.3,34.3,30.14,ESE,113,0.0,1.1,63,0.00,,,0.00,WUHU216HW,2013-04-18 09:25:00,
2013-04-18 02:30:00,46.3,34.3,30.13,East,90,0.7,0.9,63,0.00,,,0.00,WUHU216HW,2013-04-18 09:30:00,
2013-04-18 02:35:00,46.3,34.8,30.13,East,90,0.7,0.9,64,0.00,,,0.00,WUHU216HW,2013-04-18 09:35:00,
2013-04-18 02:40:00,46.3,35.5,30.13,East,90,0.2,0.9,66,0.00,,,0.00,WUHU216HW,2013-04-18 09:40:00,
2013-04-18 02:45:00,46.3,35.1,30.13,East,90,0.0,0.9,65,0.00,,,0.00,WUHU216HW,2013-04-18 09:45:00,
2013-04-18 02:50:00,46.3,35.1,30.13,ESE,113,0.7,0.9,65,0.00,,,0.00,WUHU216HW,2013-04-18 09:50:00,
2013-04-18 02:55:00,46.3,35.5,30.13,North,0,0.4,1.1,66,0.00,,,0.00,WUHU216HW,2013-04-18 09:55:00,
2013-04-18 03:00:00,46.1,35.4,30.13,North,0,0.0,1.1,66,0.00,,,0.00,WUHU216HW,2013-04-18 10:00:00,
2013-04-18 03:05:00,46.1,35.4,30.13,East,90,0.7,0.9,66,0.00,,,0.00,WUHU216HW,2013-04-18 10:05:00,
2013-04-18 03:10:00,45.9,35.2,30.13,SE,135,0.2,0.9,66,0.00,,,0.00,WUHU216HW,2013-04-18 10:10:00,
2013-04-18 03:15:00,45.7,35.4,30.13,SE,135,0.0,0.9,67,0.00,,,0.00,WUHU216HW,2013-04-18 10:15:00,
2013-04-18 03:20:00,45.7,35.4,30.12,SE,135,0.0,0.7,67,0.00,,,0.00,WUHU216HW,2013-04-18 10:20:00,
2013-04-18 03:25:00,45.7,35.4,30.13,SE,135,0.0,0.7,67,0.00,,,0.00,WUHU216HW,2013-04-18 10:25:00,
2013-04-18 03:30:00,45.5,35.6,30.12,SE,135,0.0,0.4,68,0.00,,,0.00,WUHU216HW,2013-04-18 10:30:00,
2013-04-18 03:35:00,45.4,35.4,30.13,SE,135,0.4,1.1,68,0.00,,,0.00,WUHU216HW,2013-04-18 10:35:00,
2013-04-18 03:40:00,45.4,35.4,30.13,SE,135,0.4,1.1,68,0.00,,,0.00,WUHU216HW,2013-04-18 10:40:00,
2013-04-18 03:45:00,45.2,35.2,30.13,SE,135,0.7,0.7,68,0.00,,,0.00,WUHU216HW,2013-04-18 10:45:00,
2013-04-18 03:50:00,45.2,35.7,30.13,SE,135,0.4,0.7,69,0.00,,,0.00,WUHU216HW,2013-04-18 10:50:00,
2013-04-18 03:55:00,45.0,35.5,30.13,SE,135,0.0,1.1,69,0.00,,,0.00,WUHU216HW,2013-04-18 10:55:00,
2013-04-18 04:00:00,45.0,35.5,30.13,SE,135,0.2,1.1,69,0.00,,,0.00,WUHU216HW,2013-04-18 11:00:00,
2013-04-18 04:05:00,44.8,35.3,30.13,SE,135,0.4,0.9,69,0.00,,,0.00,WUHU216HW,2013-04-18 11:05:00,
2013-04-18 04:11:00,44.8,35.3,30.13,SE,135,0.4,0.9,69,0.00,,,0.00,WUHU216HW,2013-04-18 11:11:00,
2013-04-18 04:16:00,44.6,35.1,30.13,SE,135,0.4,0.9,69,0.00,,,0.00,WUHU216HW,2013-04-18 11:16:00,
2013-04-18 04:21:00,44.6,35.1,30.13,SE,135,0.7,0.9,69,0.00,,,0.00,WUHU216HW,2013-04-18 11:21:00,
2013-04-18 04:26:00,44.6,35.5,30.13,NE,45,1.6,1.6,70,0.00,,,0.00,WUHU216HW,2013-04-18 11:26:00,
2013-04-18 04:31:00,44.6,35.8,30.13,South,180,0.4,1.6,71,0.00,,,0.00,WUHU216HW,2013-04-18 11:31:00,
2013-04-18 04:36:00,44.5,35.3,30.13,SSE,158,0.4,0.9,70,0.00,,,0.00,WUHU216HW,2013-04-18 11:36:00,
2013-04-18 04:41:00,44.5,35.7,30.13,East,90,0.2,0.7,71,0.00,,,0.00,WUHU216HW,2013-04-18 11:41:00,
2013-04-18 04:46:00,44.3,35.5,30.13,East,90,0.2,0.7,71,0.00,,,0.00,WUHU216HW,2013-04-18 11:46:00,
2013-04-18 04:51:00,44.3,35.5,30.14,East,90,0.0,0.4,71,0.00,,,0.00,WUHU216HW,2013-04-18 11:51:00,
2013-04-18 04:56:00,44.3,35.5,30.14,East,90,0.7,0.7,71,0.00,,,0.00,WUHU216HW,2013-04-18 11:56:00,
2013-04-18 05:01:00,44.3,35.5,30.13,East,90,1.1,1.1,71,0.00,,,0.00,WUHU216HW,2013-04-18 12:01:00,
2013-04-18 05:06:00,44.1,35.3,30.13,East,90,0.2,1.1,71,0.00,,,0.00,WUHU216HW,2013-04-18 12:06:00,
2013-04-18 05:11:00,44.1,35.3,30.13,SE,135,0.2,0.9,71,0.00,,,0.00,WUHU216HW,2013-04-18 12:11:00,
2013-04-18 05:16:00,44.1,35.6,30.13,ENE,68,0.0,0.7,72,0.00,,,0.00,WUHU216HW,2013-04-18 12:16:00,
2013-04-18 05:22:00,44.1,35.6,30.13,ENE,68,0.2,0.7,72,0.00,,,0.00,WUHU216HW,2013-04-18 12:22:00,
2013-04-18 05:27:00,43.9,35.5,30.13,ENE,68,0.0,0.4,72,0.00,,,0.00,WUHU216HW,2013-04-18 12:27:00,
2013-04-18 05:32:00,43.9,35.8,30.13,ENE,68,0.0,0.4,73,0.00,,,0.00,WUHU216HW,2013-04-18 12:32:00,
2013-04-18 05:37:00,43.9,35.8,30.13,East,90,0.0,0.4,73,0.00,,,0.00,WUHU216HW,2013-04-18 12:37:00,
2013-04-18 05:42:00,43.7,35.3,30.14,NNE,23,0.0,0.4,72,0.00,,,0.00,WUHU216HW,2013-04-18 12:42:00,
2013-04-18 05:47:00,43.6,35.2,30.14,NE,45,0.4,0.4,72,0.00,,,0.00,WUHU216HW,2013-04-18 12:47:00,
2013-04-18 05:52:00,43.6,35.5,30.14,ENE,68,0.4,0.7,73,0.00,,,0.00,WUHU216HW,2013-04-18 12:52:00,
2013-04-18 05:57:00,43.6,35.5,30.14,ENE,68,0.4,0.7,73,0.00,,,0.00,WUHU216HW,2013-04-18 12:57:00,
2013-04-18 06:02:00,43.6,35.5,30.14,ENE,68,0.4,0.7,73,0.00,,,0.00,WUHU216HW,2013-04-18 13:02:00,
2013-04-18 06:07:00,43.6,35.5,30.15,SE,135,0.4,0.7,73,0.00,,,0.00,WUHU216HW,2013-04-18 13:07:00,
2013-04-18 06:12:00,43.4,35.6,30.14,SSE,158,0.7,0.7,74,0.00,,,0.00,WUHU216HW,2013-04-18 13:12:00,
2013-04-18 06:17:00,43.2,35.5,30.15,SSE,158,0.2,0.7,74,0.00,,,0.00,WUHU216HW,2013-04-18 13:17:00,
2013-04-18 06:22:00,43.2,35.5,30.15,SSE,158,0.0,0.4,74,0.00,,,0.00,WUHU216HW,2013-04-18 13:22:00,
2013-04-18 06:27:00,43.2,35.5,30.15,SSE,158,0.2,0.7,74,0.00,,,0.00,WUHU216HW,2013-04-18 13:27:00,
2013-04-18 06:32:00,43.2,35.5,30.15,SSE,158,0.4,0.7,74,0.00,,,0.00,WUHU216HW,2013-04-18 13:32:00,
2013-04-18 06:37:00,43.2,35.5,30.15,ENE,68,0.4,0.4,74,0.00,,,0.00,WUHU216HW,2013-04-18 13:37:00,
2013-04-18 06:43:00,43.2,35.8,30.15,NNE,23,0.2,0.4,75,0.00,,,0.00,WUHU216HW,2013-04-18 13:43:00,
2013-04-18 06:48:00,43.2,35.8,30.16,NNE,23,0.0,0.4,75,0.00,,,0.00,WUHU216HW,2013-04-18 13:48:00,
2013-04-18 06:53:00,43.2,35.8,30.16,NNE,23,0.4,0.4,75,0.00,,,0.00,WUHU216HW,2013-04-18 13:53:00,
2013-04-18 06:58:00,43.2,35.8,30.16,NE,45,0.0,0.9,75,0.00,,,0.00,WUHU216HW,2013-04-18 13:58:00,
2013-04-18 07:03:00,43.2,36.1,30.16,East,90,0.7,0.9,76,0.00,,,0.00,WUHU216HW,2013-04-18 14:03:00,
2013-04-18 07:08:00,43.4,36.3,30.16,East,90,0.0,0.7,76,0.00,,,0.00,WUHU216HW,2013-04-18 14:08:00,
2013-04-18 07:13:00,43.4,36.3,30.16,East,90,0.0,0.9,76,0.00,,,0.00,WUHU216HW,2013-04-18 14:13:00,
2013-04-18 07:18:00,43.4,36.3,30.16,East,90,0.4,0.9,76,0.00,,,0.00,WUHU216HW,2013-04-18 14:18:00,
2013-04-18 07:23:00,43.6,36.8,30.16,East,90,0.0,0.7,77,0.00,,,0.00,WUHU216HW,2013-04-18 14:23:00,
2013-04-18 07:28:00,43.9,37.2,30.17,East,90,0.4,0.7,77,0.00,,,0.00,WUHU216HW,2013-04-18 14:28:00,
2013-04-18 07:33:00,44.5,37.7,30.17,East,90,0.2,0.7,77,0.00,,,0.00,WUHU216HW,2013-04-18 14:33:00,
2013-04-18 07:38:00,44.8,38.3,30.17,East,90,0.0,0.7,78,0.00,,,0.00,WUHU216HW,2013-04-18 14:38:00,
2013-04-18 07:43:00,45.5,39.1,30.16,WSW,248,0.7,0.7,78,0.00,,,0.00,WUHU216HW,2013-04-18 14:43:00,
2013-04-18 07:48:00,46.1,39.6,30.17,WSW,248,0.4,0.7,78,0.00,,,0.00,WUHU216HW,2013-04-18 14:48:00,
2013-04-18 07:53:00,46.8,40.3,30.17,South,180,0.2,1.6,78,0.00,,,0.00,WUHU216HW,2013-04-18 14:53:00,
2013-04-18 07:58:00,47.3,41.1,30.17,SW,225,0.7,1.6,79,0.00,,,0.00,WUHU216HW,2013-04-18 14:58:00,
2013-04-18 08:03:00,48.2,41.6,30.17,SW,225,0.4,0.7,78,0.00,,,0.00,WUHU216HW,2013-04-18 15:03:00,
2013-04-18 08:08:00,49.3,41.3,30.17,NNE,23,0.4,0.7,74,0.00,,,0.00,WUHU216HW,2013-04-18 15:08:00,
2013-04-18 08:13:00,49.9,41.2,30.17,North,0,1.1,1.1,72,0.00,,,0.00,WUHU216HW,2013-04-18 15:13:00,
2013-04-18 08:18:00,50.6,41.2,30.17,WSW,248,2.0,2.0,70,0.00,,,0.00,WUHU216HW,2013-04-18 15:18:00,
2013-04-18 08:23:00,51.5,41.7,30.17,ESE,113,0.7,2.0,69,0.00,,,0.00,WUHU216HW,2013-04-18 15:23:00,
2013-04-18 08:28:00,52.2,42.9,30.17,WSW,248,0.7,1.8,70,0.00,,,0.00,WUHU216HW,2013-04-18 15:28:00,
2013-04-18 08:34:00,52.7,41.7,30.17,West,270,1.3,1.3,66,0.00,,,0.00,WUHU216HW,2013-04-18 15:34:00,
2013-04-18 08:39:00,53.3,41.4,30.17,SW,225,1.1,1.6,64,0.00,,,0.00,WUHU216HW,2013-04-18 15:39:00,
2013-04-18 08:44:00,53.6,41.8,30.17,WNW,293,2.5,2.5,64,0.00,,,0.00,WUHU216HW,2013-04-18 15:44:00,
2013-04-18 08:49:00,54.0,42.0,30.17,WSW,248,1.1,2.5,64,0.00,,,0.00,WUHU216HW,2013-04-18 15:49:00,
2013-04-18 08:54:00,54.4,42.4,30.17,WSW,248,0.7,1.8,64,0.00,,,0.00,WUHU216HW,2013-04-18 15:54:00,
2013-04-18 08:59:00,54.9,42.9,30.17,WSW,248,0.0,1.8,64,0.00,,,0.00,WUHU216HW,2013-04-18 15:59:00,
2013-04-18 09:04:00,55.4,43.0,30.17,WSW,248,0.2,1.8,63,0.00,,,0.00,WUHU216HW,2013-04-18 16:04:00,
2013-04-18 09:09:00,55.8,43.4,30.17,SW,225,0.9,1.8,63,0.00,,,0.00,WUHU216HW,2013-04-18 16:09:00,
2013-04-18 09:14:00,56.3,43.9,30.17,WNW,293,0.4,1.6,63,0.00,,,0.00,WUHU216HW,2013-04-18 16:14:00,
2013-04-18 09:19:00,56.9,43.2,30.17,WSW,248,0.4,1.6,60,0.00,,,0.00,WUHU216HW,2013-04-18 16:19:00,
2013-04-18 09:24:00,57.2,42.7,30.17,NW,315,0.4,2.0,58,0.00,,,0.00,WUHU216HW,2013-04-18 16:24:00,
2013-04-18 09:29:00,58.0,43.3,30.17,North,0,1.6,2.9,58,0.00,,,0.00,WUHU216HW,2013-04-18 16:29:00,
2013-04-18 09:34:00,58.9,38.6,30.17,NNW,338,1.1,2.9,47,0.00,,,0.00,WUHU216HW,2013-04-18 16:34:00,
2013-04-18 09:39:00,60.7,37.9,30.17,NNE,23,2.5,2.5,43,0.00,,,0.00,WUHU216HW,2013-04-18 16:39:00,
2013-04-18 09:44:00,61.7,38.4,30.17,North,0,2.2,3.1,42,0.00,,,0.00,WUHU216HW,2013-04-18 16:44:00,
2013-04-18 09:49:00,62.3,38.3,30.17,WNW,293,1.6,3.1,41,0.00,,,0.00,WUHU216HW,2013-04-18 16:49:00,
2013-04-18 09:54:00,63.0,37.6,30.17,ENE,68,5.4,5.4,39,0.00,,,0.00,WUHU216HW,2013-04-18 16:54:00,
2013-04-18 09:59:00,63.5,37.4,30.17,North,0,4.0,5.4,38,0.00,,,0.00,WUHU216HW,2013-04-18 16:59:00,
2013-04-18 10:05:00,63.9,37.7,30.17,North,0,1.6,9.2,38,0.00,,,0.00,WUHU216HW,2013-04-18 17:05:00,
2013-04-18 10:10:00,64.3,35.1,30.17,ENE,68,1.1,9.2,34,0.00,,,0.00,WUHU216HW,2013-04-18 17:10:00,
2013-04-18 10:15:00,64.4,36.7,30.17,North,0,3.1,4.3,36,0.00,,,0.00,WUHU216HW,2013-04-18 17:15:00,
2013-04-18 10:20:00,65.0,35.7,30.16,NNW,338,1.6,6.9,34,0.00,,,0.00,WUHU216HW,2013-04-18 17:20:00,
2013-04-18 10:25:00,65.3,36.1,30.17,NE,45,2.2,6.9,34,0.00,,,0.00,WUHU216HW,2013-04-18 17:25:00,
2013-04-18 10:30:00,65.7,36.5,30.17,NNW,338,1.8,7.4,34,0.00,,,0.00,WUHU216HW,2013-04-18 17:30:00,
2013-04-18 10:35:00,65.9,36.5,30.17,North,0,0.9,7.4,34,0.00,,,0.00,WUHU216HW,2013-04-18 17:35:00,
2013-04-18 10:40:00,66.4,35.7,30.17,NNE,23,3.4,3.4,32,0.00,,,0.00,WUHU216HW,2013-04-18 17:40:00,
2013-04-18 10:45:00,66.6,36.5,30.17,ENE,68,5.4,9.2,33,0.00,,,0.00,WUHU216HW,2013-04-18 17:45:00,
2013-04-18 10:50:00,67.0,36.1,30.17,North,0,2.0,9.2,32,0.00,,,0.00,WUHU216HW,2013-04-18 17:50:00,
2013-04-18 10:55:00,67.0,36.8,30.17,NNW,338,0.4,5.4,33,0.00,,,0.00,WUHU216HW,2013-04-18 17:55:00,
2013-04-18 11:00:00,67.3,36.4,30.17,SE,135,2.2,6.5,32,0.00,,,0.00,WUHU216HW,2013-04-18 18:00:00,
2013-04-18 11:05:00,67.5,37.3,30.17,NNW,338,1.6,6.5,33,0.00,,,0.00,WUHU216HW,2013-04-18 18:05:00,
2013-04-18 11:10:00,68.0,37.7,30.17,NNW,338,2.5,9.2,33,0.00,,,0.00,WUHU216HW,2013-04-18 18:10:00,
2013-04-18 11:15:00,68.6,36.7,30.17,NNW,338,1.1,9.2,31,0.00,,,0.00,WUHU216HW,2013-04-18 18:15:00,
2013-04-18 11:20:00,68.8,36.1,30.17,NNE,23,2.9,6.9,30,0.00,,,0.00,WUHU216HW,2013-04-18 18:20:00,
2013-04-18 11:25:00,68.9,37.0,30.17,East,90,3.4,8.5,31,0.00,,,0.00,WUHU216HW,2013-04-18 18:25:00,
2013-04-18 11:30:00,69.1,35.5,30.17,North,0,5.1,8.9,29,0.00,,,0.00,WUHU216HW,2013-04-18 18:30:00,
2013-04-18 11:35:00,69.1,34.5,30.17,NNE,23,1.3,8.9,28,0.00,,,0.00,WUHU216HW,2013-04-18 18:35:00,
2013-04-18 11:41:00,69.5,35.7,30.17,NE,45,4.5,5.4,29,0.00,,,0.00,WUHU216HW,2013-04-18 18:41:00,
2013-04-18 11:46:00,69.8,36.1,30.17,North,0,2.2,5.4,29,0.00,,,0.00,WUHU216HW,2013-04-18 18:46:00,
2013-04-18 11:51:00,69.8,37.1,30.17,NNE,23,2.5,7.4,30,0.00,,,0.00,WUHU216HW,2013-04-18 18:51:00,
2013-04-18 11:56:00,70.2,36.4,30.17,NW,315,3.6,8.9,29,0.00,,,0.00,WUHU216HW,2013-04-18 18:56:00,
2013-04-18 12:01:00,70.0,36.3,30.17,NE,45,1.8,8.9,29,0.00,,,0.00,WUHU216HW,2013-04-18 19:01:00,
2013-04-18 12:06:00,70.9,36.0,30.16,West,270,0.9,4.3,28,0.00,,,0.00,WUHU216HW,2013-04-18 19:06:00,
2013-04-18 12:11:00,70.6,36.7,30.16,NNW,338,1.8,4.7,29,0.00,,,0.00,WUHU216HW,2013-04-18 19:11:00,
2013-04-18 12:16:00,70.6,35.7,30.16,NNW,338,0.9,4.7,28,0.00,,,0.00,WUHU216HW,2013-04-18 19:16:00,
2013-04-18 12:22:00,70.9,37.0,30.16,NNE,23,2.2,4.5,29,0.00,,,0.00,WUHU216HW,2013-04-18 19:22:00,
2013-04-18 12:27:00,71.5,36.5,30.16,North,0,1.1,5.8,28,0.00,,,0.00,WUHU216HW,2013-04-18 19:27:00,
2013-04-18 12:32:00,71.6,36.6,30.16,NNW,338,3.4,5.8,28,0.00,,,0.00,WUHU216HW,2013-04-18 19:32:00,
2013-04-18 12:37:00,71.6,36.6,30.15,East,90,4.3,8.5,28,0.00,,,0.00,WUHU216HW,2013-04-18 19:37:00,
2013-04-18 12:42:00,71.8,36.8,30.15,NNW,338,2.0,8.5,28,0.00,,,0.00,WUHU216HW,2013-04-18 19:42:00,
2013-04-18 12:47:00,71.6,37.7,30.15,NE,45,2.9,2.9,29,0.00,,,0.00,WUHU216HW,2013-04-18 19:47:00,
2013-04-18 12:52:00,72.4,37.3,30.15,NNW,338,2.5,7.6,28,0.00,,,0.00,WUHU216HW,2013-04-18 19:52:00,
2013-04-18 12:57:00,72.7,38.5,30.15,NNE,23,1.1,7.6,29,0.00,,,0.00,WUHU216HW,2013-04-18 19:57:00,
2013-04-18 13:02:00,73.1,34.8,30.15,NNW,338,3.8,5.1,25,0.00,,,0.00,WUHU216HW,2013-04-18 20:02:00,
2013-04-18 13:07:00,73.1,37.8,30.14,East,90,3.4,5.1,28,0.00,,,0.00,WUHU216HW,2013-04-18 20:07:00,
2013-04-18 13:12:00,73.3,36.0,30.15,North,0,1.1,8.1,26,0.00,,,0.00,WUHU216HW,2013-04-18 20:12:00,
2013-04-18 13:17:00,73.1,34.8,30.15,NE,45,1.3,8.1,25,0.00,,,0.00,WUHU216HW,2013-04-18 20:17:00,
2013-04-18 13:22:00,73.3,39.0,30.14,NNW,338,1.8,3.8,29,0.00,,,0.00,WUHU216HW,2013-04-18 20:22:00,
2013-04-18 13:27:00,73.1,40.6,30.15,NW,315,2.5,3.6,31,0.00,,,0.00,WUHU216HW,2013-04-18 20:27:00,
2013-04-18 13:32:00,72.9,40.5,30.14,West,270,1.1,3.6,31,0.00,,,0.00,WUHU216HW,2013-04-18 20:32:00,
2013-04-18 13:37:00,73.3,41.5,30.14,WSW,248,1.8,2.7,32,0.00,,,0.00,WUHU216HW,2013-04-18 20:37:00,
2013-04-18 13:42:00,73.8,40.5,30.14,NNW,338,1.3,2.0,30,0.00,,,0.00,WUHU216HW,2013-04-18 20:42:00,
2013-04-18 13:47:00,74.0,41.4,30.14,NW,315,1.3,3.8,31,0.00,,,0.00,WUHU216HW,2013-04-18 20:47:00,
2013-04-18 13:52:00,74.2,39.8,30.14,NNE,23,1.8,4.7,29,0.00,,,0.00,WUHU216HW,2013-04-18 20:52:00,
2013-04-18 13:57:00,74.2,35.7,30.14,NNW,338,1.6,7.2,25,0.00,,,0.00,WUHU216HW,2013-04-18 20:57:00,
2013-04-18 14:02:00,74.0,36.5,30.13,NE,45,2.7,7.2,26,0.00,,,0.00,WUHU216HW,2013-04-18 21:02:00,
2013-04-18 14:07:00,74.2,40.8,30.13,WSW,248,0.4,4.7,30,0.00,,,0.00,WUHU216HW,2013-04-18 21:07:00,
2013-04-18 14:12:00,73.8,40.5,30.13,North,0,1.1,4.5,30,0.00,,,0.00,WUHU216HW,2013-04-18 21:12:00,
2013-04-18 14:18:00,73.8,39.4,30.13,NNW,338,1.8,4.0,29,0.00,,,0.00,WUHU216HW,2013-04-18 21:18:00,
2013-04-18 14:23:00,73.8,41.2,30.13,NNW,338,3.4,4.5,31,0.00,,,0.00,WUHU216HW,2013-04-18 21:23:00,
2013-04-18 14:28:00,73.1,39.9,30.13,NW,315,3.1,4.7,30,0.00,,,0.00,WUHU216HW,2013-04-18 21:28:00,
2013-04-18 14:33:00,73.6,41.0,30.13,NW,315,2.5,5.4,31,0.00,,,0.00,WUHU216HW,2013-04-18 21:33:00,
2013-04-18 14:38:00,73.8,40.5,30.13,West,270,2.0,5.4,30,0.00,,,0.00,WUHU216HW,2013-04-18 21:38:00,
2013-04-18 14:43:00,74.2,40.8,30.13,West,270,3.4,5.4,30,0.00,,,0.00,WUHU216HW,2013-04-18 21:43:00,
2013-04-18 14:48:00,74.3,40.0,30.12,WSW,248,4.3,5.4,29,0.00,,,0.00,WUHU216HW,2013-04-18 21:48:00,
2013-04-18 14:53:00,74.5,41.1,30.12,NNW,338,3.8,4.7,30,0.00,,,0.00,WUHU216HW,2013-04-18 21:53:00,
2013-04-18 14:58:00,74.9,40.4,30.12,WNW,293,3.4,4.9,29,0.00,,,0.00,WUHU216HW,2013-04-18 21:58:00,
2013-04-18 15:03:00,74.9,40.4,30.12,NNW,338,2.0,5.1,29,0.00,,,0.00,WUHU216HW,2013-04-18 22:03:00,
2013-04-18 15:08:00,74.5,41.1,30.12,NW,315,2.5,5.1,30,0.00,,,0.00,WUHU216HW,2013-04-18 22:08:00,
2013-04-18 15:13:00,74.2,39.8,30.12,West,270,2.9,4.7,29,0.00,,,0.00,WUHU216HW,2013-04-18 22:13:00,
2013-04-18 15:18:00,74.2,40.8,30.12,NW,315,2.2,4.0,30,0.00,,,0.00,WUHU216HW,2013-04-18 22:18:00,
2013-04-18 15:23:00,74.5,41.9,30.12,NNW,338,3.4,4.0,31,0.00,,,0.00,WUHU216HW,2013-04-18 22:23:00,
2013-04-18 15:28:00,74.9,42.2,30.12,NNE,23,3.4,3.8,31,0.00,,,0.00,WUHU216HW,2013-04-18 22:28:00,
2013-04-18 15:33:00,74.7,42.0,30.11,WNW,293,2.2,4.7,31,0.00,,,0.00,WUHU216HW,2013-04-18 22:33:00,
2013-04-18 15:38:00,75.1,42.4,30.11,West,270,0.9,4.7,31,0.00,,,0.00,WUHU216HW,2013-04-18 22:38:00,
2013-04-18 15:43:00,75.1,42.4,30.11,NW,315,4.0,5.4,31,0.00,,,0.00,WUHU216HW,2013-04-18 22:43:00,
2013-04-18 15:48:00,74.9,42.9,30.11,NW,315,3.8,5.4,32,0.00,,,0.00,WUHU216HW,2013-04-18 22:48:00,
2013-04-18 15:53:00,75.1,41.6,30.11,West,270,2.5,4.7,30,0.00,,,0.00,WUHU216HW,2013-04-18 22:53:00,
2013-04-18 15:59:00,74.7,41.3,30.11,NNW,338,1.1,2.9,30,0.00,,,0.00,WUHU216HW,2013-04-18 22:59:00,
2013-04-18 16:04:00,74.9,42.2,30.10,WNW,293,0.7,3.4,31,0.00,,,0.00,WUHU216HW,2013-04-18 23:04:00,
2013-04-18 16:09:00,74.9,41.4,30.10,WNW,293,2.9,4.0,30,0.00,,,0.00,WUHU216HW,2013-04-18 23:09:00,
2013-04-18 16:14:00,74.9,41.4,30.10,NW,315,1.1,4.0,30,0.00,,,0.00,WUHU216HW,2013-04-18 23:14:00,
2013-04-18 16:19:00,75.4,40.9,30.10,WSW,248,2.0,3.4,29,0.00,,,0.00,WUHU216HW,2013-04-18 23:19:00,
2013-04-18 16:24:00,75.6,42.1,30.10,NNE,23,1.8,4.0,30,0.00,,,0.00,WUHU216HW,2013-04-18 23:24:00,
2013-04-18 16:29:00,74.5,41.9,30.09,NNW,338,1.1,4.0,31,0.00,,,0.00,WUHU216HW,2013-04-18 23:29:00,
2013-04-18 16:34:00,74.9,41.4,30.09,NW,315,3.8,4.0,30,0.00,,,0.00,WUHU216HW,2013-04-18 23:34:00,
2013-04-18 16:39:00,74.9,41.4,30.09,NW,315,1.6,5.4,30,0.00,,,0.00,WUHU216HW,2013-04-18 23:39:00,
2013-04-18 16:44:00,74.9,42.2,30.09,WSW,248,3.4,5.4,31,0.00,,,0.00,WUHU216HW,2013-04-18 23:44:00,
2013-04-18 16:49:00,75.6,42.8,30.09,NNW,338,4.9,4.9,31,0.00,,,0.00,WUHU216HW,2013-04-18 23:49:00,
2013-04-18 16:54:00,76.9,42.2,30.09,North,0,2.5,5.1,29,0.00,,,0.00,WUHU216HW,2013-04-18 23:54:00,
2013-04-18 16:59:00,76.3,40.7,30.09,West,270,4.0,5.1,28,0.00,,,0.00,WUHU216HW,2013-04-18 23:59:00,
2013-04-18 17:04:00,77.8,40.9,30.09,NW,315,3.8,4.5,27,0.00,,,0.00,WUHU216HW,2013-04-19 00:04:00,
2013-04-18 17:09:00,76.0,40.3,30.09,NNW,338,6.0,6.0,28,0.00,,,0.00,WUHU216HW,2013-04-19 00:09:00,
2013-04-18 17:15:00,76.0,41.4,30.09,West,270,2.9,6.0,29,0.00,,,0.00,WUHU216HW,2013-04-19 00:15:00,
2013-04-18 17:20:00,75.2,41.8,30.09,West,270,2.7,4.5,30,0.00,,,0.00,WUHU216HW,2013-04-19 00:20:00,
2013-04-18 17:25:00,76.3,41.7,30.09,NNW,338,2.5,7.4,29,0.00,,,0.00,WUHU216HW,2013-04-19 00:25:00,
2013-04-18 17:30:00,76.7,42.0,30.09,NW,315,2.7,7.4,29,0.00,,,0.00,WUHU216HW,2013-04-19 00:30:00,
2013-04-18 17:35:00,76.9,41.1,30.10,West,270,4.0,6.0,28,0.00,,,0.00,WUHU216HW,2013-04-19 00:35:00,
2013-04-18 17:40:00,77.6,42.8,30.10,WNW,293,2.0,5.4,29,0.00,,,0.00,WUHU216HW,2013-04-19 00:40:00,
2013-04-18 17:45:00,78.1,44.3,30.10,NW,315,4.3,4.3,30,0.00,,,0.00,WUHU216HW,2013-04-19 00:45:00,
2013-04-18 17:50:00,77.4,43.7,30.10,West,270,1.1,4.3,30,0.00,,,0.00,WUHU216HW,2013-04-19 00:50:00,
2013-04-18 17:55:00,77.0,43.4,30.10,West,270,0.9,4.0,30,0.00,,,0.00,WUHU216HW,2013-04-19 00:55:00,
2013-04-18 18:00:00,77.9,44.1,30.10,NW,315,1.3,4.9,30,0.00,,,0.00,WUHU216HW,2013-04-19 01:00:00,
2013-04-18 18:05:00,75.2,43.3,30.10,NNW,338,1.8,4.9,32,0.00,,,0.00,WUHU216HW,2013-04-19 01:05:00,
2013-04-18 18:10:00,74.2,43.0,30.10,West,270,4.3,4.3,33,0.00,,,0.00,WUHU216HW,2013-04-19 01:10:00,
2013-04-18 18:15:00,73.4,42.4,30.10,NNW,338,1.8,4.3,33,0.00,,,0.00,WUHU216HW,2013-04-19 01:15:00,
2013-04-18 18:20:00,73.8,43.5,30.10,NW,315,1.1,4.0,34,0.00,,,0.00,WUHU216HW,2013-04-19 01:20:00,
2013-04-18 18:25:00,73.3,43.7,30.11,NW,315,3.4,4.0,35,0.00,,,0.00,WUHU216HW,2013-04-19 01:25:00,
2013-04-18 18:30:00,71.8,44.0,30.11,NW,315,1.1,3.6,37,0.00,,,0.00,WUHU216HW,2013-04-19 01:30:00,
2013-04-18 18:35:00,71.1,43.4,30.11,WNW,293,0.7,3.6,37,0.00,,,0.00,WUHU216HW,2013-04-19 01:35:00,
2013-04-18 18:40:00,69.8,42.2,30.11,NW,315,3.4,3.6,37,0.00,,,0.00,WUHU216HW,2013-04-19 01:40:00,
2013-04-18 18:45:00,69.3,41.8,30.11,NW,315,2.0,4.3,37,0.00,,,0.00,WUHU216HW,2013-04-19 01:45:00,
2013-04-18 18:51:00,69.1,41.6,30.11,WSW,248,0.4,4.3,37,0.00,,,0.00,WUHU216HW,2013-04-19 01:51:00,
2013-04-18 18:56:00,69.3,41.8,30.11,NNW,338,0.7,3.8,37,0.00,,,0.00,WUHU216HW,2013-04-19 01:56:00,
2013-04-18 19:01:00,68.8,41.3,30.11,SW,225,1.6,3.8,37,0.00,,,0.00,WUHU216HW,2013-04-19 02:01:00,
2013-04-18 19:06:00,69.1,42.3,30.11,WSW,248,0.9,1.6,38,0.00,,,0.00,WUHU216HW,2013-04-19 02:06:00,
2013-04-18 19:11:00,69.3,41.8,30.11,SW,225,1.8,1.8,37,0.00,,,0.00,WUHU216HW,2013-04-19 02:11:00,
2013-04-18 19:16:00,68.8,41.3,30.11,WSW,248,0.4,1.8,37,0.00,,,0.00,WUHU216HW,2013-04-19 02:16:00,
2013-04-18 19:21:00,68.6,41.9,30.11,SW,225,0.4,1.1,38,0.00,,,0.00,WUHU216HW,2013-04-19 02:21:00,
2013-04-18 19:26:00,68.0,41.4,30.11,SW,225,0.4,1.1,38,0.00,,,0.00,WUHU216HW,2013-04-19 02:26:00,
2013-04-18 19:31:00,67.7,41.0,30.11,NW,315,0.2,1.1,38,0.00,,,0.00,WUHU216HW,2013-04-19 02:31:00,
2013-04-18 19:36:00,67.1,40.6,30.11,NW,315,0.0,0.4,38,0.00,,,0.00,WUHU216HW,2013-04-19 02:36:00,
2013-04-18 19:41:00,66.8,39.5,30.11,NW,315,0.0,0.4,37,0.00,,,0.00,WUHU216HW,2013-04-19 02:41:00,
2013-04-18 19:46:00,66.2,39.8,30.12,NW,315,0.0,0.4,38,0.00,,,0.00,WUHU216HW,2013-04-19 02:46:00,
2013-04-18 19:51:00,65.9,39.4,30.12,West,270,0.0,0.9,38,0.00,,,0.00,WUHU216HW,2013-04-19 02:51:00,
2013-04-18 19:56:00,65.3,39.7,30.12,NNW,338,0.0,0.9,39,0.00,,,0.00,WUHU216HW,2013-04-19 02:56:00,
2013-04-18 20:01:00,65.0,40.1,30.12,NW,315,0.2,0.9,40,0.00,,,0.00,WUHU216HW,2013-04-19 03:01:00,
2013-04-18 20:06:00,64.6,39.8,30.12,NW,315,0.2,0.9,40,0.00,,,0.00,WUHU216HW,2013-04-19 03:06:00,
2013-04-18 20:11:00,64.3,39.4,30.12,NE,45,0.2,0.2,40,0.00,,,0.00,WUHU216HW,2013-04-19 03:11:00,
2013-04-18 20:16:00,64.3,39.4,30.12,NE,45,0.0,0.2,40,0.00,,,0.00,WUHU216HW,2013-04-19 03:16:00,
2013-04-18 20:21:00,63.9,39.2,30.12,NE,45,0.0,0.0,40,0.00,,,0.00,WUHU216HW,2013-04-19 03:21:00,
2013-04-18 20:26:00,63.4,39.3,30.12,East,90,0.0,0.9,41,0.00,,,0.00,WUHU216HW,2013-04-19 03:26:00,
2013-04-18 20:31:00,63.0,38.9,30.12,East,90,0.0,0.9,41,0.00,,,0.00,WUHU216HW,2013-04-19 03:31:00,
2013-04-18 20:37:00,62.6,39.2,30.12,East,90,0.0,0.4,42,0.00,,,0.00,WUHU216HW,2013-04-19 03:37:00,
2013-04-18 20:42:00,62.5,39.0,30.12,East,90,0.0,0.4,42,0.00,,,0.00,WUHU216HW,2013-04-19 03:42:00,
2013-04-18 20:47:00,61.9,39.1,30.12,East,90,0.4,0.4,43,0.00,,,0.00,WUHU216HW,2013-04-19 03:47:00,
2013-04-18 20:52:00,61.6,38.7,30.12,East,90,0.0,0.4,43,0.00,,,0.00,WUHU216HW,2013-04-19 03:52:00,
2013-04-18 20:57:00,61.4,39.2,30.12,East,90,0.2,0.4,44,0.00,,,0.00,WUHU216HW,2013-04-19 03:57:00,
2013-04-18 21:01:00,61.2,39.6,30.12,East,90,0.0,0.4,45,0.00,,,0.00,WUHU216HW,2013-04-19 04:01:00,
2013-04-18 21:02:00,61.0,39.4,30.12,East,90,0.0,0.4,45,0.00,,,0.00,WUHU216HW,2013-04-19 04:02:00,
2013-04-18 21:07:00,60.5,39.5,30.12,NW,315,0.0,0.4,46,0.00,,,0.00,WUHU216HW,2013-04-19 04:07:00,
2013-04-18 21:12:00,60.1,39.2,30.12,NW,315,0.0,0.4,46,0.00,,,0.00,WUHU216HW,2013-04-19 04:12:00,
2013-04-18 21:17:00,59.4,39.7,30.13,NW,315,0.9,0.9,48,0.00,,,0.00,WUHU216HW,2013-04-19 04:17:00,
2013-04-18 21:22:00,59.2,39.0,30.12,NNE,23,0.0,0.9,47,0.00,,,0.00,WUHU216HW,2013-04-19 04:22:00,
2013-04-18 21:27:00,59.0,38.8,30.13,NNE,23,0.0,0.2,47,0.00,,,0.00,WUHU216HW,2013-04-19 04:27:00,
2013-04-18 21:32:00,58.9,39.2,30.13,ENE,68,0.7,0.7,48,0.00,,,0.00,WUHU216HW,2013-04-19 04:32:00,
2013-04-18 21:38:00,58.7,39.1,30.12,ENE,68,0.4,0.7,48,0.00,,,0.00,WUHU216HW,2013-04-19 04:38:00,
2013-04-18 21:43:00,58.7,39.1,30.13,ENE,68,0.2,0.4,48,0.00,,,0.00,WUHU216HW,2013-04-19 04:43:00,
2013-04-18 21:48:00,58.3,39.2,30.13,ENE,68,0.0,0.4,49,0.00,,,0.00,WUHU216HW,2013-04-19 04:48:00,
2013-04-18 21:53:00,58.0,39.0,30.13,ENE,68,0.0,0.2,49,0.00,,,0.00,WUHU216HW,2013-04-19 04:53:00,
2013-04-18 21:58:00,58.0,39.0,30.13,ENE,68,0.0,0.0,49,0.00,,,0.00,WUHU216HW,2013-04-19 04:58:00,
2013-04-18 22:03:00,57.6,39.3,30.13,ENE,68,0.0,0.2,50,0.00,,,0.00,WUHU216HW,2013-04-19 05:03:00,
2013-04-18 22:08:00,57.4,39.5,30.13,NE,45,0.0,0.2,51,0.00,,,0.00,WUHU216HW,2013-04-19 05:08:00,
2013-04-18 22:13:00,57.1,39.2,30.13,NE,45,0.0,0.0,51,0.00,,,0.00,WUHU216HW,2013-04-19 05:13:00,
2013-04-18 22:18:00,56.9,39.0,30.13,NE,45,0.0,0.4,51,0.00,,,0.00,WUHU216HW,2013-04-19 05:18:00,
2013-04-18 22:23:00,56.5,38.6,30.13,NE,45,0.0,0.4,51,0.00,,,0.00,WUHU216HW,2013-04-19 05:23:00,
2013-04-18 22:28:00,56.5,39.1,30.13,NE,45,0.0,0.0,52,0.00,,,0.00,WUHU216HW,2013-04-19 05:28:00,
2013-04-18 22:33:00,56.2,38.3,30.13,NE,45,0.0,0.4,51,0.00,,,0.00,WUHU216HW,2013-04-19 05:33:00,
2013-04-18 22:38:00,56.0,38.5,30.13,ESE,113,0.0,0.4,52,0.00,,,0.00,WUHU216HW,2013-04-19 05:38:00,
2013-04-18 22:43:00,55.8,38.3,30.13,ESE,113,0.0,0.7,52,0.00,,,0.00,WUHU216HW,2013-04-19 05:43:00,
2013-04-18 22:48:00,55.6,38.7,30.14,ESE,113,0.0,0.7,53,0.00,,,0.00,WUHU216HW,2013-04-19 05:48:00,
2013-04-18 22:53:00,55.4,38.5,30.14,ESE,113,0.0,0.0,53,0.00,,,0.00,WUHU216HW,2013-04-19 05:53:00,
2013-04-18 22:58:00,55.1,38.2,30.14,NNE,23,0.0,0.0,53,0.00,,,0.00,WUHU216HW,2013-04-19 05:58:00,
2013-04-18 23:03:00,55.1,38.6,30.14,NNE,23,0.0,0.0,54,0.00,,,0.00,WUHU216HW,2013-04-19 06:03:00,
2013-04-18 23:08:00,54.7,38.4,30.14,NNE,23,0.0,0.0,54,0.00,,,0.00,WUHU216HW,2013-04-19 06:08:00,
2013-04-18 23:13:00,54.5,38.2,30.14,NNE,23,0.0,0.0,54,0.00,,,0.00,WUHU216HW,2013-04-19 06:13:00,
2013-04-18 23:19:00,54.5,38.2,30.14,NNE,23,0.0,0.0,54,0.00,,,0.00,WUHU216HW,2013-04-19 06:19:00,